Location: Esterri de Aneo
(42.6284°N, 1.1223°E)
Time: 15:29:49
(UTC+00:00)

Aureole 1 Rocket - Pass Details

Date: 11 December 2025
Orbit: 372 x 1167 km, 73.9° (Epoch: 19 January)

Event Time Altitude Azimuth Distance (km) Brightness Sun altitude
Rises 17:13:55 0° 166° (SSE) 2,675 6.4 -9.3°
Reaches altitude 10° 17:16:08 10° 153° (SSE) 1,902 5.5 -9.7°
Maximum altitude 17:19:42 26° 96° (E) 1,303 4.2 -10.3°
Enters shadow 17:23:42 11° 42° (NE) 2,230 5.4 -11.0°
